Location: Poprad
(49.0500°N, 20.3000°E)
Time: 18:27:23
(UTC+02:00)

ITUPSAT 1 - Pass Details

Date: 02 May 2024
Orbit: 694 x 707 km, 98.5° (Epoch: 20 May)

Event Time Altitude Azimuth Distance (km) Brightness Sun altitude
Rises 21:57:35 0° 23° (NNE) 3,084 ? -16.4°
Reaches altitude 10° 22:00:08 10° 35° (NE) 2,161 ? -16.6°
Maximum altitude 22:04:12 28° 95° (E) 1,294 ? -17.1°
Enters shadow 22:04:57 27° 111° (ESE) 1,332 ? -17.1°
